Left ArrowRight Arrow

40.97296, -117.73568

Hourly Observations for March 27, 2018

Temp ( °F °C ) Dew Point ( °F °C ) Humidity (%) Winds ( mph kmh ) Pressure ( in mb ) Visibility ( mi km ) Precip ( " mm )
12:56 am 00:56 Clear 25 -3.9 18 -7.8 75 75 Calm 30.35 1028 10 16 0.00 0.00
1:56 am 01:56 Clear 22 -5.6 18 -7.8 85 85 SE 3 6 30.35 1028 10 16 0.00 0.00
2:56 am 02:56 Clear 23 -5 19 -7.2 85 85 SE 6 9 30.35 1028 10 16 0.00 0.00
3:56 am 03:56 Clear 22 -5.6 17 -8.3 82 82 SSE 6 9 30.36 1028 10 16 0.00 0.00
4:56 am 04:56 Clear 23 -5 18 -7.8 81 81 SE 7 11 30.35 1028 10 16 0.00 0.00
5:56 am 05:56 Clear 22 -5.6 18 -7.8 85 85 Calm 30.38 1029 10 16 0.00 0.00
6:56 am 06:56 Sunny 21 -6.1 17 -8.3 85 85 S 5 7 30.40 1029 10 16 0.00 0.00
7:56 am 07:56 Sunny 26 -3.3 20 -6.7 78 78 SSE 3 6 30.42 1030 10 16 0.00 0.00
8:56 am 08:56 Sunny 35 1.7 23 -5 61 61 SSE 3 6 30.42 1030 10 16 0.00 0.00
9:56 am 09:56 Sunny 41 5 22 -5.6 47 47 S 3 6 30.41 1030 10 16 0.00 0.00
10:56 am 10:56 Sunny 46 7.8 24 -4.4 42 42 SSW 5 7 30.39 1029 10 16 0.00 0.00
11:56 am 11:56 Sunny 48 8.9 24 -4.4 39 39 VRB 3 6 30.37 1029 10 16 0.00 0.00
12:56 pm 12:56 Sunny 52 11.1 27 -2.8 38 38 VRB 6 9 30.34 1028 10 16 0.00 0.00
1:56 pm 13:56 Sunny 52 11.1 27 -2.8 38 38 Calm 30.32 1027 10 16 0.00 0.00
2:56 pm 14:56 Sunny 55 12.8 29 -1.7 37 37 WSW 8 13 30.29 1026 10 16 0.00 0.00
3:56 pm 15:56 Sunny 56 13.3 27 -2.8 33 33 WSW 8 13 30.29 1026 10 16 0.00 0.00
4:56 pm 16:56 Sunny 55 12.8 25 -3.9 31 31 NW 6 9 30.29 1026 10 16 0.00 0.00
5:56 pm 17:56 Sunny 54 12.2 27 -2.8 35 35 NW 9 15 30.29 1026 10 16 0.00 0.00
6:56 pm 18:56 Sunny 51 10.6 29 -1.7 43 43 NW 3 6 30.30 1026 10 16 0.00 0.00
7:56 pm 19:56 Clear 45 7.2 29 -1.7 54 54 SSE 5 7 30.31 1026 10 16 0.00 0.00
8:56 pm 20:56 Clear 41 5 31 -0.6 67 67 VRB 3 6 30.31 1026 10 16 0.00 0.00
9:56 pm 21:56 Cloudy 42 5.6 32 0 68 68 S 9 15 30.29 1026 10 16 0.00 0.00
10:56 pm 22:56 Cloudy 43 6.1 30 -1.1 60 60 S 7 11 30.28 1025 10 16 0.00 0.00
11:56 pm 23:56 Cloudy 42 5.6 31 -0.6 65 65 WSW 6 9 30.28 1025 10 16 0.00 0.00

Powered by Vaisala Xweather